SCP
1 1 2 1 1 1 0 0 0 0 0 0 0 0 0 0 1 1 1 1 1 1 1 1 1 1 1 1 0 0 1 1 0 0 0 0 0 0 0 0 0 0 0
1 1 2 1 1 1 0 0 0 0 0 0 0 0 0 0 1 1 1 1 1 1 1 1 1 1 1 1 0 0 0 1 1 1 1 0 0 0 0 0 0 0 0
1 1 2 2 1 1 0 0 0 0 0 0 0 0 0 0 0 0 0 0 0 0 0 0 1 1 1 1 0 0 0 0 1 1 1 1 0 0 0 0 0 0 0
1 1 2 2 1 1 0 0 0 0 0 0 0 0 0 0 0 0 0 0 0 0 0 0 0 0 0 0 0 0 0 0 0 0 1 1 1 1 0 0 0 0 0
1 1 2 2 2 1 1 0 0 0 0 0 0 0 0 0 0 0 0 0 0 0 0 0 0 0 0 0 0 0 0 0 0 0 0 1 1 1 1 0 0 0 0
1 1 2 2 2 1 1 1 0 0 0 0 0 0 0 0 0 0 0 0 0 0 0 0 0 0 0 0 0 0 0 0 0 0 0 0 1 1 1 0 0 0 0
1 1 1 2 2 2 1 1 1 0 0 0 0 0 0 0 0 0 0 0 0 0 0 0 0 0 0 0 0 0 0 0 0 0 0 0 0 0 0 0 0 0 0
1 1 1 2 2 2 2 1 1 1 0 0 0 0 0 0 0 0 0 0 0 0 0 0 0 0 0 0 0 0 0 0 0 0 0 0 0 0 0 0 1 0 0
1 1 1 2 2 2 2 1 1 1 0 0 0 0 0 0 0 0 0 0 0 0 0 1 0 0 0 0 0 0 0 0 0 0 0 0 0 0 0 0 1 1 1
1 1 2 2 2 2 2 2 1 1 1 0 0 0 0 0 0 0 0 0 0 0 1 1 0 0 0 0 0 0 0 0 0 0 0 0 0 0 0 0 1 1 1
1 1 2 3 3 3 2 2 2 1 1 1 1 0 0 0 0 0 0 0 0 0 1 1 1 0 0 0 0 0 0 0 0 0 0 0 0 1 1 1 1 1 1
1 1 2 3 3 3 3 3 2 1 1 1 1 1 0 0 0 0 0 0 0 0 1 1 1 0 0 0 0 0 0 0 0 0 0 0 0 1 1 1 1 1 1
2 2 2 2 3 3 3 3 2 2 1 1 1 1 0 0 0 0 0 0 0 0 0 0 0 0 0 0 0 0 0 0 0 0 0 0 0 1 1 1 1 1 1
2 2 2 2 3 3 3 3 2 2 1 1 1 1 1 1 0 0 0 0 0 0 0 0 0 0 0 0 0 0 0 0 0 0 0 0 0 1 1 1 1 1 1
2 2 3 3 3 3 3 3 2 2 1 1 1 1 1 1 0 0 0 0 0 0 0 0 0 0 0 0 0 0 0 0 0 0 0 0 1 1 1 2 1 1 1
2 2 3 3 3 2 2 2 2 1 1 1 1 1 1 0 0 0 0 0 0 0 0 0 0 0 0 0 0 0 0 0 0 0 0 0 1 1 1 1 1 1 1
2 2 2 2 2 2 2 2 2 1 1 0 0 0 0 0 0 0 0 0 0 0 0 0 0 0 0 0 0 0 0 0 0 0 0 0 1 1 1 1 1 1 1
2 2 2 2 2 2 1 1 1 1 1 1 0 0 0 0 0 0 0 0 0 0 0 0 0 0 0 0 0 0 0 0 0 0 0 0 0 1 1 1 1 1 0
2 2 2 2 2 2 2 2 1 1 1 1 1 0 0 0 0 0 0 0 0 0 0 0 0 0 0 0 0 0 0 0 0 0 0 0 0 0 0 0 0 0 0
2 1 1 2 2 2 2 2 2 1 1 1 1 1 0 0 0 0 0 0 0 0 0 0 0 0 0 0 0 0 0 0 0 0 0 0 0 0 0 0 0 0 0
2 1 1 2 2 3 3 2 2 2 1 1 1 1 0 0 0 0 0 0 0 0 0 0 0 0 0 0 0 0 0 0 0 0 0 0 0 0 0 0 0 0 0
1 2 2 2 2 3 2 2 2 2 2 1 1 1 0 0 0 0 0 1 1 1 1 1 0 0 0 0 0 0 0 0 0 0 0 0 0 0 0 0 0 0 0
1 1 2 2 2 2 2 2 2 1 1 1 1 1 0 0 1 1 1 1 1 1 1 1 0 0 0 0 0 0 0 0 0 0 0 0 0 0 0 0 0 0 0
0 0 1 2 2 2 1 1 1 1 0 1 1 1 1 1 1 1 1 1 1 1 1 0 0 0 0 0 0 0 0 0 0 0 0 0 0 0 0 0 0 0 0
0 0 0 1 1 1 1 0 0 0 0 0 0 1 1 1 0 0 1 0 0 0 0 0 0 0 0 0 0 0 0 0 0 0 0 0 0 0 0 0 0 0 0
0 0 0 0 1 0 0 0 0 0 0 0 0 1 1 0 0 0 0 0 0 0 0 0 0 0 0 0 0 0 0 0 0 0 0 0 0 0 0 0 0 0 0
Wind_Speed
8 7 7 6 5 5 4 4 4 4 4 4 3 3 3 3 3 3 2 2 2 2 2 2 2 2 2 2 1 1 1 1 2 3 3 3 3 2 3 1 1 1 3
7 8 7 6 6 6 5 5 5 4 4 4 4 4 3 3 2 2 2 2 2 2 2 2 2 2 2 1 1 2 1 1 2 3 3 3 3 2 2 2 1 1 1
7 8 8 8 7 6 6 5 5 5 4 4 4 4 3 3 3 3 3 3 2 2 2 2 2 2 2 2 1 1 2 2 2 3 3 2 2 2 2 2 2 1 1
7 7 8 8 7 6 6 6 5 5 5 5 5 4 4 4 4 4 3 3 2 2 2 2 2 2 2 3 2 2 2 2 3 3 3 3 2 2 2 2 2 2 2
7 8 7 7 7 6 6 6 5 5 5 4 4 4 4 4 3 3 3 3 3 3 3 2 2 2 2 1 0 1 2 2 3 3 3 3 3 3 3 2 2 2 2
7 7 6 6 6 6 6 6 6 5 5 5 5 5 5 3 3 2 3 4 4 4 3 3 3 4 4 3 1 1 1 1 2 3 3 3 3 3 2 3 3 3 2
6 6 6 7 6 6 6 6 6 6 6 6 6 5 5 4 5 6 5 4 4 4 4 4 3 3 4 4 5 5 3 1 2 3 3 2 3 2 3 4 3 3 3
7 6 7 7 7 6 6 6 6 6 5 5 5 5 4 4 6 7 7 6 4 5 4 4 4 5 4 4 3 4 3 3 3 3 3 2 2 2 3 4 4 4 4
7 7 7 7 7 7 7 7 6 6 5 5 5 5 5 5 7 7 7 5 4 4 4 4 4 4 4 4 4 4 4 3 2 1 2 1 1 1 2 3 3 4 4
6 6 6 7 8 8 8 7 6 5 5 5 5 6 6 6 7 9 9 4 5 4 4 4 4 4 5 6 6 5 4 4 3 4 4 4 4 4 5 5 3 4 3
5 5 5 7 7 7 7 6 6 6 6 6 6 6 6 5 7 9 8 5 5 4 4 4 4 6 6 6 6 5 3 3 3 3 2 2 3 3 3 4 3 3 4
4 5 5 6 6 6 6 6 6 6 6 6 6 5 4 5 5 7 8 6 5 5 4 4 3 7 7 6 5 3 3 4 3 3 3 3 3 3 3 3 4 4 3
4 5 5 5 5 6 6 6 6 6 5 5 5 5 4 4 4 7 8 8 6 5 3 2 3 5 6 5 5 5 6 4 4 4 3 3 2 2 2 2 3 3 4
4 5 5 5 5 5 5 5 5 6 6 6 5 5 5 4 4 5 5 6 6 5 4 4 5 5 5 4 5 6 5 4 4 4 3 2 2 2 3 3 3 3 3
4 4 4 4 4 5 5 4 5 6 5 6 5 5 5 5 5 5 5 5 5 4 4 4 4 4 4 4 4 4 4 4 4 4 3 3 3 3 3 3 3 3 3
4 4 4 3 3 4 4 3 2 3 3 5 5 5 5 4 5 7 7 5 4 5 4 4 4 4 5 5 4 4 4 4 4 4 3 3 3 3 3 3 3 3 4
4 4 3 3 4 4 4 4 3 2 1 3 4 5 5 5 6 7 7 6 7 8 5 5 4 4 4 4 4 3 3 3 3 3 4 4 4 4 3 3 3 3 4
5 4 4 4 4 4 4 4 4 4 3 3 3 5 5 5 6 7 7 6 5 6 5 5 5 4 4 4 4 3 3 3 3 3 3 4 4 4 4 4 4 4 4
4 4 4 4 4 3 3 3 3 4 4 3 3 4 5 5 5 6 8 5 5 5 5 5 4 4 4 4 3 3 3 3 3 3 3 3 3 3 3 3 3 4 4
4 3 4 4 4 4 4 4 4 4 4 4 4 3 4 4 4 5 6 5 5 5 5 5 4 4 4 4 4 4 4 4 4 4 3 3 3 3 4 4 4 3 4
4 4 5 4 4 4 4 4 4 4 4 4 4 4 5 5 5 6 6 6 5 5 5 5 5 4 4 4 4 5 5 4 4 4 4 3 3 3 3 3 4 4 4
4 4 5 5 4 4 4 4 4 4 5 5 3 3 5 5 4 4 5 5 5 5 4 4 4 4 4 5 5 5 5 5 4 4 4 3 3 3 3 3 4 4 4
4 4 5 5 4 4 5 4 4 4 4 4 4 4 4 4 4 4 5 5 4 4 4 5 5 4 4 4 4 5 5 5 4 4 4 4 4 4 4 4 5 5 5
4 5 5 4 4 4 5 5 5 5 5 5 4 4 4 4 5 5 4 4 4 4 4 4 5 6 7 5 4 4 4 4 4 5 6 5 5 4 4 4 5 5 5
4 4 4 5 5 5 5 5 5 5 4 4 4 4 4 4 4 4 4 4 4 4 5 5 4 6 8 8 6 5 4 4 4 4 5 5 6 6 5 5 5 5 6
4 4 4 4 5 5 5 5 5 5 5 4 4 4 4 4 4 4 4 3 4 4 4 4 5 6 7 6 6 5 5 5 5 5 5 5 5 5 5 5 6 6 6
Wind_Direction
191 186 184 185 186 186 187 180 180 176 177 176 171 168 154 147 150 152 152 136 133 133 136 119 114 116 138 137 147 158 162 160 149 132 138 147 157 163 139 141 125 143 115
194 191 188 182 183 189 189 184 185 181 183 186 180 178 167 162 162 163 159 164 165 152 137 136 130 124 134 143 155 153 142 164 175 157 158 167 175 171 175 183 188 169 138
194 194 190 189 188 190 191 188 189 188 185 190 190 187 187 180 172 180 185 183 180 178 165 157 152 153 155 136 161 158 145 145 165 174 161 162 188 190 194 202 203 213 218
195 195 195 195 192 190 191 190 193 190 191 194 196 192 194 196 194 192 190 187 186 176 173 173 171 170 169 148 156 157 154 154 163 176 175 179 189 197 216 217 211 201 227
196 198 198 195 190 191 191 190 191 193 201 194 199 197 196 204 207 202 195 192 188 178 183 182 151 90 50 68 103 158 167 177 179 187 190 191 196 200 219 226 233 236 225
200 198 191 191 188 189 194 195 189 193 201 194 201 202 199 205 168 219 239 198 199 192 189 184 163 169 152 149 115 25 343 234 212 206 210 214 218 214 223 237 236 242 239
200 194 190 192 189 192 194 194 192 197 201 202 206 206 208 189 173 195 227 230 216 207 200 193 179 168 185 180 165 173 185 252 285 270 235 239 243 229 226 233 240 253 266
199 193 191 194 191 195 199 197 200 201 198 208 211 208 208 188 180 190 202 225 222 214 211 210 203 197 197 206 197 195 200 195 209 232 246 257 269 255 239 250 255 254 252
203 199 193 193 193 195 199 199 202 201 199 204 205 206 207 194 186 193 202 214 220 217 212 214 217 211 162 192 211 211 215 205 170 206 334 334 358 315 275 242 235 240 248
207 206 197 195 196 199 201 200 200 201 204 204 205 211 212 207 182 194 211 212 215 215 211 208 212 220 175 193 215 217 222 224 213 195 203 213 222 206 220 237 243 245 255
209 205 199 197 198 201 200 198 197 198 202 207 208 213 215 210 184 192 208 224 220 218 214 212 196 181 191 205 231 235 234 247 235 230 226 226 223 214 210 219 233 252 257
201 201 201 201 197 194 193 196 199 197 202 207 210 210 212 202 200 193 202 225 248 229 227 221 188 171 190 208 223 211 204 228 231 224 222 228 230 223 218 217 223 232 251
197 199 201 200 198 195 192 194 197 198 206 208 208 210 208 204 191 193 199 208 223 234 227 201 172 173 192 206 205 201 209 220 222 225 229 234 235 230 223 217 219 223 240
201 199 197 197 196 196 198 200 201 202 208 211 211 212 208 201 201 195 196 199 200 216 212 177 176 186 208 211 199 203 215 219 223 226 231 229 219 214 218 222 224 225 238
201 196 198 199 195 198 199 208 213 214 217 219 217 212 211 210 202 197 201 205 204 201 198 191 191 194 205 208 210 211 209 206 214 220 222 224 226 227 226 225 233 238 245
204 198 197 197 195 198 198 198 213 247 220 228 240 235 223 216 181 187 201 203 187 177 194 205 206 211 216 217 214 212 212 213 216 216 216 221 225 228 227 224 227 239 249
212 205 200 203 199 200 203 206 200 195 189 219 223 225 230 198 186 187 191 187 183 185 206 214 215 218 221 221 219 216 217 215 218 219 217 221 226 228 229 230 232 241 249
216 212 210 205 208 207 209 211 211 208 202 204 204 202 198 189 186 182 175 172 189 204 219 220 219 219 220 221 219 217 216 213 217 221 223 222 223 228 232 234 236 244 253
215 214 211 208 207 205 206 210 212 213 212 207 198 181 186 183 179 177 175 200 208 210 217 220 219 217 216 218 221 220 216 215 220 224 226 229 229 230 238 243 244 247 257
212 217 222 207 201 200 203 207 209 210 212 209 205 194 175 182 190 187 198 212 216 215 214 216 216 217 215 214 215 215 217 219 221 224 226 227 231 236 238 241 244 248 254
207 198 206 211 205 205 208 210 212 213 213 215 213 198 193 200 201 201 205 209 213 215 212 212 213 212 213 213 213 214 217 219 221 224 226 229 233 240 247 246 248 253 261
211 205 204 209 208 210 213 213 213 215 215 219 216 189 187 210 210 209 210 214 216 218 216 213 214 212 211 212 212 213 216 220 222 224 228 231 235 240 245 248 251 254 256
215 213 207 207 208 204 212 213 213 215 217 216 214 206 198 213 217 218 216 215 214 215 214 213 214 213 213 214 215 216 220 222 223 224 227 230 233 236 239 244 250 258 259
215 215 212 209 209 210 214 216 216 217 219 220 218 215 213 217 222 221 218 216 217 216 215 214 215 217 217 215 215 219 225 227 228 226 227 233 236 239 241 245 251 256 261
213 214 216 215 212 214 217 218 221 220 220 222 223 221 221 222 224 223 219 214 216 218 219 220 220 221 221 221 221 220 206 205 223 234 228 231 234 238 241 244 247 252 259
214 214 217 218 219 219 219 219 222 224 224 225 225 226 225 225 227 223 218 215 216 217 220 222 224 226 225 223 220 210 195 196 206 226 232 228 230 234 237 242 248 252 257